Miscellaneous Local Product
Issued by NWS Hastings, NE

Home | Current Version | Previous Version | Graphics & Text | Print | Product List | Glossary On
Versions: 1 2 3 4 5 6 7 8 9 10 11 12 13 14 15 16 17 18 19 20 21 22 23 24 25 26 27 28 29 30 31 32 33 34 35 36 37 38 39 40 41 42 43 44 45 46 47 48 49 50
000
AXUS43 KGID 220702
MISGRI

GID CWA HOURLY WEATHER ROUNDUP
NATIONAL WEATHER SERVICE HASTINGS NE
200 AM CDT TUE JUL 22 2014

NOTE: "FAIR" INDICATES FEW OR NO CLOUDS BELOW 12,000 FEET WITH NO
SIGNIFICANT WEATHER AND/OR OBSTRUCTIONS TO VISIBILITY.

...SOUTH CENTRAL NEBRASKA...

CITY           SKY/WX    TMP DP  RH WIND       PRES   REMARKS
GRAND ISLAND   MOCLDY    85  71  63 SW14      29.94R HX  90
HASTINGS       MOCLDY    82  67  60 S9        29.96S
KEARNEY        PTCLDY    82  70  65 SW14      29.97S
ORD            NOT AVBL
YORK           MOCLDY    82  73  74 S10       29.93F
AURORA         MOCLDY    84  72  66 SW9       29.94S
LEXINGTON      PTCLDY    78  63  60 SW12      29.99S
HOLDREGE       PTCLDY    77  65  65 S12       30.00R
HEBRON         CLEAR     80  69  67 S6        29.95F

...NEBRASKA PANHANDLE...

CITY           SKY/WX    TMP DP  RH WIND       PRES   REMARKS
CHADRON        PTCLDY    75  54  47 N13       30.08R
ALLIANCE       PTCLDY    81  50  33 E14G22    30.08R
SCOTTSBLUFF    PTCLDY    65  59  81 N8        30.08R
SIDNEY         MOCLDY    72  53  51 S10       30.11R

...WESTERN AND NORTH CENTRAL NEBRASKA...

CITY           SKY/WX    TMP DP  RH WIND       PRES   REMARKS
VALENTINE      MOCLDY    78  58  49 NE8       29.99S
AINSWORTH      MOCLDY    81  57  43 NE8G24    29.97F
ONEILL         PTCLDY    79  64  59 W6        29.92F
BROKEN BOW     MOCLDY    76  60  57 S7        29.97S
IMPERIAL       CLEAR     73  60  63 SW3       30.06S
NORTH PLATTE   CLOUDY    84  58  40 SW16      29.99R
MCCOOK         CLEAR     77  62  59 SW13      30.02R

...EASTERN NEBRASKA...

CITY           SKY/WX    TMP DP  RH WIND       PRES   REMARKS
NORFOLK        PTCLDY    80  72  76 W6        29.90R
SO SIOUX CITY  PTCLDY    83  74  74 SW6       29.84R
TEKAMAH        CLOUDY    85  73  67 S9        29.86R HX  91
COLUMBUS       CLOUDY    88  70  55 W8        29.90F HX  92
ALBION         PTCLDY    79  71  76 NW8       29.93R
OMAHA EPPLEY   CLOUDY    87  72  60 S10       29.88S HX  93
OFFUTT AFB     CLOUDY    80  79  99 CALM      29.90R
MILLARD        CLOUDY    88  72  58 CALM      29.90R HX  95
LINCOLN        CLOUDY    85  70  60 SW6       29.93R
NEBRASKA CITY  CLOUDY    82  72  71 SW17      29.90F
BEATRICE       PTCLDY    78  69  73 SW8       29.94R
FALLS CITY     PTCLDY    81  73  76 SW13      29.92S

...NORTHERN KANSAS...

CITY           SKY/WX    TMP DP  RH WIND       PRES   REMARKS
GOODLAND       CLEAR     72  62  71 SW16G24   30.10S
HILL CITY      CLEAR     79  60  52 W8        30.00S
NORTON         SUNNY     79  55  44 S8        30.00R
PHILLIPSBURG   CLEAR     75  64  69 CALM      29.99R
SMITH CENTER   CLEAR     75  66  73 S5        29.99S
HAYS           MOCLDY    79  59  50 W5        30.01R
RUSSELL        CLOUDY    76  70  82 SW8       29.98S
CONCORDIA      PTCLDY    82  71  69 S18G26    29.96S
SALINA         CLOUDY    85  73  67 S20       29.97S HX  91
TOPEKA         PTCLDY    81  75  82 S8        29.97S



USA.gov is the U.S. government's official web portal to all federal, state and local government web resources and services.